User: anonymous   Login
Location: Unspecified
(0.0000°N, 0.0000°E)
Time: 19:24:03
(UTC+00:00)
Language:

STARLINK-32820 - Orbit

View from above orbital plane
View from above orbital plane
View from above satellite
View from above satellite

Ground track
Ground track

The orbit is defined by the following mean orbital elements,

1 63041U          26145.35347374 +.00000000 +00000-0 +72934-3 0 00009
2 63041  53.1573 262.0800 0001746  78.0274 282.0922 15.30210944    08
Epoch (UTC): 25 May 2026 08:29:00
Eccentricity: 0.0001746
inclination: 53.1573°
perigee height: 474 km
apogee height: 476 km
right ascension of ascending node: 262.0800°
argument of perigee: 78.0274°
revolutions per day: 15.30210944
mean anomaly at epoch: 282.0922°

The dashed part of the orbit path shows where the satellite is in the earth's shadow,  

DLR